Coldwater, MI

7:23 AM EDT on April 24, 2018 (GMT -0400)
Branch County Memorial

Weather History for KOEB - January, 2014

Change the Weather History Date:

Monday, January 6, 2014

  Actual Average (KJYM) Record (KJYM)
Temperature  
Mean Temperature 1 °F -  
Max Temperature 16 °F 28 °F 53 °F (2012)
Min Temperature -15 °F 14 °F -15 °F (2014)
Degree Days  
Heating Degree Days 64    
Moisture  
Dew Point -10 °F    
Average Humidity 73    
Maximum Humidity 87    
Minimum Humidity 61    
Precipitation  
Precipitation 0.00 in - - ()
Sea Level Pressure  
Sea Level Pressure 29.95 in    
Wind  
Wind Speed 16 mph (WSW)    
Max Wind Speed 26 mph    
Max Gust Speed 31 mph    
Visibility 4 miles    
Events Snow    
Averages and records for this station are not official NWS values.
T = Trace of Precipitation, MM = Missing Value Source: NWS Daily Summary

Daily Weather History Graph

Daily Weather History Graph

Search for Another Location

Airport or City:

Astronomy

Jan. 06, 2014 Rise Set
Actual Time 8:08 AM EST 5:24 PM EST
Civil Twilight 7:36 AM EST 5:55 PM EST
Nautical Twilight 7:01 AM EST 6:30 PM EST
Astronomical Twilight 6:28 AM EST 7:04 PM EST
Moon 11:16 AM EST (1/6) No Moon Set
Length of Visible Light 10h 19m
Length of Day
9h 16m
Waxing Crescent, 34% of the Moon is Illuminated
Jan 6
Waxing Crescent
Jan 7
First Quarter
Jan 15
Full
Jan 24
Last Quarter
Jan 30
New

Hourly Weather History & Observations

Time (EST) Temp. Windchill Dew Point Humidity Pressure Visibility Wind Dir Wind Speed Gust Speed Precip Events Conditions
12:15 AM 17.1 °F - 13.1 °F 84% 29.71 in 5.0 mi North - - N/A Snow Light Snow
12:34 AM 16.7 °F 2.0 °F 13.3 °F 86% 29.71 in 2.5 mi NW 15.0 mph - N/A Snow Light Snow
12:55 AM 16.3 °F - 13.1 °F 87% 29.71 in 4.0 mi North - - N/A Snow Light Snow
1:15 AM 16.0 °F - 12.4 °F 86% 29.73 in 5.0 mi North - - N/A Snow Light Snow
1:34 AM 16.0 °F 2.3 °F 12.0 °F 84% 29.73 in 7.0 mi NW 12.7 mph 19.6 mph N/A Snow Light Snow
1:55 AM 15.4 °F - 11.1 °F 83% 29.74 in 10.0 mi North - - N/A   Overcast
2:15 AM 14.9 °F - 10.8 °F 84% 29.75 in 10.0 mi North - - N/A   Overcast
2:34 AM 13.8 °F 1.8 °F 9.9 °F 84% 29.76 in 10.0 mi WNW 9.2 mph - N/A   Mostly Cloudy
2:55 AM 13.6 °F 1.6 °F 10.2 °F 86% 29.76 in 10.0 mi WNW 9.2 mph - N/A Snow Light Snow
3:15 AM 14.5 °F 2.7 °F 11.3 °F 87% 29.77 in 10.0 mi WNW 9.2 mph - N/A Snow Light Snow
3:34 AM 15.4 °F 2.3 °F 12.2 °F 87% 29.78 in 2.5 mi West 11.5 mph - N/A Snow Light Snow
3:55 AM 14.9 °F - 10.6 °F 83% 29.78 in 5.0 mi North - - N/A Snow Light Snow
4:15 AM 14.2 °F -3.2 °F 9.7 °F 82% 29.79 in 5.0 mi West 19.6 mph - N/A Snow Light Snow
4:35 AM 13.5 °F -5.4 °F 8.8 °F 82% 29.79 in 5.0 mi West 23.0 mph - N/A Snow Light Snow
4:55 AM 12.0 °F - 7.7 °F 83% 29.80 in 3.0 mi North - - N/A Snow Light Snow
5:14 AM 10.8 °F - 5.7 °F 80% 29.81 in 3.0 mi North - - N/A Snow Light Snow
5:35 AM 8.6 °F - 2.8 °F 77% 29.83 in 3.0 mi North - - N/A   Haze
5:55 AM 7.3 °F - 2.1 °F 79% 29.84 in 3.0 mi North - - N/A   Haze
6:14 AM 6.3 °F - 0.9 °F 78% 29.85 in 4.0 mi North - - N/A   Haze
6:35 AM 5.5 °F - -0.2 °F 77% 29.86 in 4.0 mi North - - N/A   Haze
6:55 AM 5.0 °F - -0.0 °F 80% 29.87 in 2.5 mi North - - N/A Snow Light Snow
7:14 AM 4.1 °F - -0.8 °F 80% 29.88 in 3.0 mi North - - N/A   Haze
7:35 AM 3.0 °F - -2.0 °F 80% 29.89 in 1.8 mi North - - N/A Snow Light Snow
7:55 AM 2.3 °F - -2.7 °F 79% 29.90 in 2.0 mi North - - N/A Snow Light Snow
8:14 AM 1.0 °F - -4.4 °F 78% 29.91 in 1.0 mi North - - N/A   Haze
8:35 AM -0.0 °F -21.3 °F -5.6 °F 77% 29.92 in 1.2 mi WSW 18.4 mph 31.1 mph N/A   Haze
8:55 AM -1.3 °F -21.7 °F -6.7 °F 78% 29.93 in 2.0 mi WSW 16.1 mph 24.2 mph N/A   Haze
9:14 AM -2.2 °F -22.9 °F -7.8 °F 77% 29.93 in 3.0 mi WSW 16.1 mph 23.0 mph N/A   Haze
9:35 AM -6.2 °F -29.2 °F -12.6 °F 74% 29.95 in 3.0 mi SW 18.4 mph - N/A   Haze
9:55 AM -7.4 °F -32.1 °F -14.1 °F 73% 29.96 in 2.5 mi WSW 20.7 mph 26.5 mph N/A   Haze
10:14 AM -8.1 °F -31.2 °F -15.0 °F 72% 29.96 in 2.5 mi WSW 17.3 mph 26.5 mph N/A   Haze
10:35 AM -7.8 °F -32.5 °F -14.8 °F 71% 29.96 in 2.5 mi WSW 20.7 mph 27.6 mph N/A   Haze
10:55 AM -7.4 °F -30.9 °F -14.1 °F 73% 29.97 in 1.5 mi WSW 18.4 mph 29.9 mph N/A   Haze
11:14 AM -6.0 °F -29.6 °F -13.0 °F 72% 29.96 in 1.8 mi WSW 19.6 mph 29.9 mph N/A   Haze
11:35 AM -5.4 °F -28.9 °F -13.0 °F 70% 29.96 in 3.0 mi WSW 19.6 mph 26.5 mph N/A   Haze
11:54 AM -5.1 °F - -13.2 °F 68% 29.95 in 1.5 mi North - - N/A   Haze
12:15 PM -5.3 °F -31.7 °F -13.2 °F 69% 29.96 in 0.8 mi WSW 26.5 mph 31.1 mph N/A   Haze
12:35 PM -5.3 °F -30.3 °F -13.4 °F 68% 29.96 in 0.8 mi WSW 23.0 mph 31.1 mph N/A   Haze
12:54 PM -5.8 °F - -14.1 °F 67% 29.96 in 1.0 mi North - - N/A   Haze
1:15 PM -6.0 °F -31.7 °F -14.8 °F 66% 29.96 in 2.0 mi WSW 24.2 mph 31.1 mph N/A   Haze
1:34 PM -6.7 °F -31.7 °F -15.0 °F 67% 29.96 in 2.5 mi WSW 21.9 mph 28.8 mph N/A   Haze
1:55 PM -6.7 °F -30.0 °F -15.0 °F 67% 29.96 in 2.0 mi WSW 18.4 mph - N/A   Haze
2:15 PM -6.7 °F -30.6 °F -15.3 °F 66% 29.97 in 2.5 mi WSW 19.6 mph 28.8 mph N/A   Haze
2:34 PM -7.4 °F -32.6 °F -16.2 °F 65% 29.98 in 2.0 mi WSW 21.9 mph 31.1 mph N/A   Haze
2:55 PM -7.6 °F -29.8 °F -16.6 °F 65% 30.00 in 2.5 mi WSW 16.1 mph 29.9 mph N/A   Haze
3:14 PM -7.8 °F -31.4 °F -17.1 °F 64% 30.01 in 2.5 mi WSW 18.4 mph 29.9 mph N/A   Haze
3:35 PM -8.5 °F -31.7 °F -18.0 °F 63% 30.02 in 4.0 mi WSW 17.3 mph 29.9 mph N/A   Haze
3:55 PM -8.9 °F -34.5 °F -18.9 °F 61% 30.03 in 3.0 mi WSW 21.9 mph 28.8 mph N/A   Haze
4:14 PM -9.9 °F -32.8 °F -19.7 °F 62% 30.04 in 2.5 mi WSW 16.1 mph 26.5 mph N/A   Haze
4:35 PM -11.2 °F -36.4 °F -20.4 °F 64% 30.05 in 5.0 mi SW 19.6 mph - N/A   Haze
4:55 PM -12.5 °F -38.1 °F -20.9 °F 66% 30.06 in 4.0 mi SW 19.6 mph - N/A   Haze
5:14 PM -13.9 °F - -21.8 °F 68% 30.07 in 3.0 mi North - - N/A   Haze
5:35 PM -14.4 °F - -22.5 °F 67% 30.08 in 4.0 mi North - - N/A   Haze
5:55 PM -15.0 °F -39.3 °F -23.3 °F 66% 30.08 in 7.0 mi WSW 16.1 mph - N/A   Clear
6:14 PM -15.2 °F -40.3 °F -23.6 °F 66% 30.09 in 5.0 mi SW 17.3 mph 23.0 mph N/A   Haze
6:35 PM -15.3 °F -39.8 °F -23.8 °F 66% 30.09 in 5.0 mi SW 16.1 mph 24.2 mph N/A   Haze
6:55 PM -15.3 °F -41.9 °F -23.8 °F 66% 30.10 in 5.0 mi SW 19.6 mph 24.2 mph N/A   Haze
7:14 PM -15.3 °F -40.5 °F -23.8 °F 66% 30.11 in 5.0 mi SW 17.3 mph 25.3 mph N/A   Haze
7:35 PM -15.2 °F -41.6 °F -23.6 °F 66% 30.11 in 4.0 mi SW 19.6 mph 26.5 mph N/A   Haze
7:55 PM -15.3 °F -39.8 °F -23.8 °F 66% 30.11 in 5.0 mi SW 16.1 mph 24.2 mph N/A   Haze
8:14 PM -15.3 °F -39.8 °F -23.8 °F 66% 30.11 in 5.0 mi SW 16.1 mph 23.0 mph N/A   Haze
8:35 PM -15.2 °F -39.6 °F -23.4 °F 66% 30.11 in 5.0 mi SW 16.1 mph 24.2 mph N/A   Haze
8:55 PM -15.0 °F -38.5 °F -23.1 °F 67% 30.10 in 5.0 mi SW 15.0 mph 23.0 mph N/A   Haze
9:14 PM -14.8 °F -39.1 °F -22.5 °F 68% 30.11 in 5.0 mi SW 16.1 mph 21.9 mph N/A   Haze
9:35 PM -14.6 °F -38.1 °F -22.2 °F 69% 30.11 in 7.0 mi SW 15.0 mph 21.9 mph N/A   Overcast
9:54 PM -14.3 °F -37.6 °F -21.8 °F 69% 30.11 in 5.0 mi SW 15.0 mph 24.2 mph N/A   Haze
10:15 PM -14.3 °F -39.1 °F -21.3 °F 71% 30.10 in 4.0 mi SW 17.3 mph 21.9 mph N/A   Haze
10:35 PM -14.3 °F -38.4 °F -21.3 °F 71% 30.10 in 4.0 mi SW 16.1 mph 21.9 mph N/A   Haze
10:54 PM -14.3 °F -38.4 °F -21.3 °F 71% 30.10 in 5.0 mi SW 16.1 mph 27.6 mph N/A   Haze
11:15 PM -14.3 °F -39.1 °F -21.5 °F 70% 30.10 in 5.0 mi SW 17.3 mph 21.9 mph N/A   Haze
11:35 PM -14.1 °F -37.4 °F -21.3 °F 70% 30.10 in 5.0 mi SW 15.0 mph 23.0 mph N/A   Haze
11:54 PM -14.3 °F -37.6 °F -21.5 °F 70% 30.10 in 7.0 mi SW 15.0 mph 20.7 mph N/A   Clear